Location: Kawakawa
(35.3830°S, 174.0670°E)
Time: 03:19:27
(UTC+12:00)

Cosmos 1939 Rocket - Pass Details

Date: 15 August 2020
Orbit: 533 x 583 km, 97.4° (Epoch: 19 September)

Event Time Altitude Azimuth Distance (km) Brightness Sun altitude
Exits shadow 19:35:07 24° 171° (S) 1,159 4.3 -21.5°
Maximum altitude 19:37:25 84° 255° (WSW) 555 2.7 -22.0°
Drops below altitude 10° 19:41:18 10° 345° (NNW) 1,796 5.6 -22.8°
Sets 19:43:23 0° 346° (NNW) 2,675 6.5 -23.2°
